Location: Ahausen
(50.4985°N, 8.2722°E)
Time: 09:04:52
(UTC+00:00)

AO-109 - Visible Passes

Search period start: 29 June 2022 00:00
Search period end: 09 July 2022 00:00
Orbit: 477 x 502 km, 60.7° (Epoch: 28 June)

Date Brightness Start Highest point End Pass type
(mag) Time Alt. Az. Time Alt. Az. Time Alt. Az.
02 Jul ? 02:15:35 10° SE 02:16:42 11° ESE 02:17:48 10° E visible
05 Jul ? 02:36:36 10° SSW 02:40:13 53° SE 02:43:54 10° NE visible
06 Jul ? 02:12:25 11° SSW 02:15:47 47° SE 02:19:25 10° ENE visible
07 Jul ? 01:48:39 16° SSW 01:51:20 42° SE 01:54:54 10° ENE visible
08 Jul ? 01:24:50 20° S 01:26:53 38° SE 01:30:23 10° ENE visible
